Year,Month,Day,Hour,Minute,Value (Times are PST for temperature in C)
2010,03,08,00,01,2.40
2010,03,08,00,02,2.40
2010,03,08,00,04,2.40
2010,03,08,00,05,2.40
2010,03,08,00,06,2.40
2010,03,08,00,07,2.30
2010,03,08,00,09,2.30
2010,03,08,00,10,2.30
2010,03,08,00,11,2.30
2010,03,08,00,12,2.30
2010,03,08,00,13,2.30
2010,03,08,00,14,2.30
2010,03,08,00,16,2.30
2010,03,08,00,17,2.20
2010,03,08,00,18,2.20
2010,03,08,00,19,2.20
2010,03,08,00,21,2.20
2010,03,08,00,22,2.10
2010,03,08,00,23,2.10
2010,03,08,00,24,2.10
2010,03,08,00,25,2.10
2010,03,08,00,27,2.10
2010,03,08,00,28,2.10
2010,03,08,00,30,2.00
2010,03,08,00,31,2.00
2010,03,08,00,32,1.90
2010,03,08,00,34,1.90
2010,03,08,00,35,1.90
2010,03,08,00,36,1.90
2010,03,08,00,37,1.80
2010,03,08,00,38,1.80
2010,03,08,00,39,1.80
2010,03,08,00,41,1.80
2010,03,08,00,42,1.80
2010,03,08,00,43,1.80
2010,03,08,00,46,1.70
2010,03,08,00,47,1.70
2010,03,08,00,48,1.60
2010,03,08,00,49,1.60
2010,03,08,00,52,1.50
2010,03,08,00,53,1.40
2010,03,08,00,54,1.40
2010,03,08,00,55,1.40
2010,03,08,00,57,1.30
2010,03,08,00,58,1.30
2010,03,08,01,00,1.30
2010,03,08,01,02,1.30
2010,03,08,01,03,1.30
2010,03,08,01,04,1.30
2010,03,08,01,05,1.20
2010,03,08,01,06,1.20
2010,03,08,01,08,1.20
2010,03,08,01,10,1.20
2010,03,08,01,11,1.20
2010,03,08,01,13,1.20
2010,03,08,01,14,1.20
2010,03,08,01,15,1.10
2010,03,08,01,16,1.10
2010,03,08,01,17,1.10
2010,03,08,01,19,1.10
2010,03,08,01,20,1.10
2010,03,08,01,21,1.10
2010,03,08,01,22,1.10
2010,03,08,01,23,1.10
2010,03,08,01,25,1.10
2010,03,08,01,26,1.10
2010,03,08,01,27,1.10
2010,03,08,01,28,1.10
2010,03,08,01,30,1.10
2010,03,08,01,32,1.10
2010,03,08,01,33,1.00
2010,03,08,01,34,0.90
2010,03,08,01,35,0.90
2010,03,08,01,37,0.80
2010,03,08,01,38,0.80
2010,03,08,01,40,0.70
2010,03,08,01,41,0.70
2010,03,08,01,42,0.60
2010,03,08,01,43,0.60
2010,03,08,01,45,0.60
2010,03,08,01,46,0.50
2010,03,08,01,47,0.40
2010,03,08,01,48,0.40
2010,03,08,01,50,0.30
2010,03,08,01,52,0.30
2010,03,08,01,53,0.30
2010,03,08,01,54,0.30
2010,03,08,01,56,0.30
2010,03,08,01,57,0.30
2010,03,08,01,58,0.30
2010,03,08,02,00,0.30
2010,03,08,02,02,0.30
2010,03,08,02,03,0.30
2010,03,08,02,04,0.30
2010,03,08,02,05,0.30
2010,03,08,02,06,0.30
2010,03,08,02,08,0.30
2010,03,08,02,10,0.20
2010,03,08,02,13,0.20
2010,03,08,02,14,0.20
2010,03,08,02,15,0.20
2010,03,08,02,16,0.20
2010,03,08,02,17,0.20
2010,03,08,02,19,0.20
2010,03,08,02,20,0.30
2010,03,08,02,21,0.30
2010,03,08,02,22,0.30
2010,03,08,02,24,0.30
2010,03,08,02,25,0.30
2010,03,08,02,26,0.30
2010,03,08,02,27,0.30
2010,03,08,02,29,0.30
2010,03,08,02,30,0.30
2010,03,08,02,31,0.30
2010,03,08,02,32,0.30
2010,03,08,02,33,0.30
2010,03,08,02,34,0.30
2010,03,08,02,35,0.30
2010,03,08,02,37,0.30
2010,03,08,02,38,0.30
2010,03,08,02,40,0.30
2010,03,08,02,41,0.30
2010,03,08,02,43,0.30
2010,03,08,02,45,0.30
2010,03,08,02,46,0.30
2010,03,08,02,48,0.30
2010,03,08,02,50,0.30
2010,03,08,02,51,0.40
2010,03,08,02,53,0.30
2010,03,08,02,54,0.30
2010,03,08,02,55,0.30
2010,03,08,02,56,0.30
2010,03,08,02,57,0.30
2010,03,08,02,58,0.30
2010,03,08,03,00,0.20
2010,03,08,03,01,0.10
2010,03,08,03,02,0.10
2010,03,08,03,03,0.00
2010,03,08,03,05,0.00
2010,03,08,03,06,-0.10
2010,03,08,03,07,-0.10
2010,03,08,03,08,-0.20
2010,03,08,03,09,-0.20
2010,03,08,03,12,-0.30
2010,03,08,03,13,-0.30
2010,03,08,03,14,-0.30
2010,03,08,03,15,-0.40
2010,03,08,03,17,-0.40
2010,03,08,03,18,-0.40
2010,03,08,03,20,-0.40
2010,03,08,03,21,-0.40
2010,03,08,03,23,-0.40
2010,03,08,03,24,-0.40
2010,03,08,03,25,-0.40
2010,03,08,03,26,-0.40
2010,03,08,03,27,-0.40
2010,03,08,03,29,-0.50
2010,03,08,03,30,-0.50
2010,03,08,03,31,-0.60
2010,03,08,03,32,-0.60
2010,03,08,03,33,-0.50
2010,03,08,03,34,-0.60
2010,03,08,03,36,-0.60
2010,03,08,03,37,-0.60
2010,03,08,03,38,-0.70
2010,03,08,03,39,-0.70
2010,03,08,03,42,-0.80
2010,03,08,03,43,-0.80
2010,03,08,03,44,-0.80
2010,03,08,03,45,-0.80
2010,03,08,03,47,-0.80
2010,03,08,03,48,-0.80
2010,03,08,03,50,-0.90
2010,03,08,03,51,-0.90
2010,03,08,03,53,-0.80
2010,03,08,03,54,-0.80
2010,03,08,03,55,-0.80
2010,03,08,03,56,-0.80
2010,03,08,03,57,-0.80
2010,03,08,03,59,-0.80
2010,03,08,04,00,-0.80
2010,03,08,04,01,-0.80
2010,03,08,04,02,-0.70
2010,03,08,04,04,-0.70
2010,03,08,04,05,-0.70
2010,03,08,04,06,-0.70
2010,03,08,04,07,-0.80
2010,03,08,04,09,-0.80
2010,03,08,04,10,-0.80
2010,03,08,04,11,-0.80
2010,03,08,04,12,-0.80
2010,03,08,04,13,-0.80
2010,03,08,04,15,-0.80
2010,03,08,04,16,-0.80
2010,03,08,04,17,-0.80
2010,03,08,04,18,-0.70
2010,03,08,04,20,-0.70
2010,03,08,04,21,-0.60
2010,03,08,04,22,-0.60
2010,03,08,04,23,-0.50
2010,03,08,04,24,-0.40
2010,03,08,04,26,-0.40
2010,03,08,04,27,-0.30
2010,03,08,04,28,-0.30
2010,03,08,04,31,-0.10
2010,03,08,04,32,0.00
2010,03,08,04,33,0.00
2010,03,08,04,35,0.00
2010,03,08,04,36,0.10
2010,03,08,04,37,0.10
2010,03,08,04,38,0.20
2010,03,08,04,40,0.20
2010,03,08,04,41,0.20
2010,03,08,04,42,0.30
2010,03,08,04,43,0.40
2010,03,08,04,44,0.50
2010,03,08,04,46,0.60
2010,03,08,04,47,0.70
2010,03,08,04,48,0.70
2010,03,08,04,50,0.70
2010,03,08,04,51,0.70
2010,03,08,04,52,0.70
2010,03,08,04,53,0.70
2010,03,08,04,54,0.80
2010,03,08,04,56,0.80
2010,03,08,04,57,0.80
2010,03,08,04,58,0.80
2010,03,08,04,59,0.80
2010,03,08,05,02,0.80
2010,03,08,05,03,0.80
2010,03,08,05,04,0.80
2010,03,08,05,05,0.80
2010,03,08,05,07,0.80
2010,03,08,05,08,0.80
2010,03,08,05,09,0.80
2010,03,08,05,12,0.80
2010,03,08,05,13,0.80
2010,03,08,05,14,0.80
2010,03,08,05,15,0.80
2010,03,08,05,18,0.80
2010,03,08,05,20,0.90
2010,03,08,05,21,0.90
2010,03,08,05,22,0.90
2010,03,08,05,24,0.90
2010,03,08,05,25,0.90
2010,03,08,05,26,0.80
2010,03,08,05,27,0.80
2010,03,08,05,28,0.80
2010,03,08,05,30,0.80
2010,03,08,05,32,0.70
2010,03,08,05,33,0.80
2010,03,08,05,34,0.80
2010,03,08,05,35,0.80
2010,03,08,05,37,0.80
2010,03,08,05,38,0.80
2010,03,08,05,40,0.80
2010,03,08,05,42,0.90
2010,03,08,05,43,0.90
2010,03,08,05,44,0.90
2010,03,08,05,45,0.90
2010,03,08,05,46,0.90
2010,03,08,05,48,0.90
2010,03,08,05,50,0.80
2010,03,08,05,51,0.80
2010,03,08,05,53,0.80
2010,03,08,05,54,0.70
2010,03,08,05,55,0.70
2010,03,08,05,56,0.70
2010,03,08,05,57,0.70
2010,03,08,05,59,0.70
2010,03,08,06,00,0.70
2010,03,08,06,01,0.70
2010,03,08,06,02,0.70
2010,03,08,06,04,0.80
2010,03,08,06,05,0.80
2010,03,08,06,06,0.80
2010,03,08,06,07,0.80
2010,03,08,06,08,0.80
2010,03,08,06,10,0.90
2010,03,08,06,12,0.90
2010,03,08,06,13,0.90
2010,03,08,06,14,0.90
2010,03,08,06,16,0.90
2010,03,08,06,17,1.00
2010,03,08,06,18,0.90
2010,03,08,06,20,0.90
2010,03,08,06,22,0.90
2010,03,08,06,23,0.90
2010,03,08,06,24,0.90
2010,03,08,06,25,0.80
2010,03,08,06,27,0.80
2010,03,08,06,28,0.80
2010,03,08,06,30,0.70
2010,03,08,06,31,0.70
2010,03,08,06,33,0.70
2010,03,08,06,34,0.70
2010,03,08,06,35,0.70
2010,03,08,06,36,0.70
2010,03,08,06,38,0.70
2010,03,08,06,39,0.70
2010,03,08,06,40,0.70
2010,03,08,06,41,0.60
2010,03,08,06,42,0.60
2010,03,08,06,43,0.60
2010,03,08,06,45,0.70
2010,03,08,06,46,0.70
2010,03,08,06,47,0.70
2010,03,08,06,48,0.70
2010,03,08,06,50,0.70
2010,03,08,06,51,0.70
2010,03,08,06,52,0.70
2010,03,08,06,53,0.80
2010,03,08,06,54,0.80
2010,03,08,06,56,0.80
2010,03,08,06,57,0.80
2010,03,08,06,58,0.80
2010,03,08,07,00,0.80
2010,03,08,07,02,0.70
2010,03,08,07,03,0.70
2010,03,08,07,04,0.70
2010,03,08,07,05,0.70
2010,03,08,07,07,0.70
2010,03,08,07,08,0.70
2010,03,08,07,10,0.70
2010,03,08,07,12,0.60
2010,03,08,07,13,0.60
2010,03,08,07,14,0.50
2010,03,08,07,15,0.40
2010,03,08,07,17,0.40
2010,03,08,07,18,0.30
2010,03,08,07,20,0.20
2010,03,08,07,22,0.20
2010,03,08,07,23,0.20
2010,03,08,07,24,0.20
2010,03,08,07,25,0.10
2010,03,08,07,26,0.10
2010,03,08,07,28,0.10
2010,03,08,07,29,0.10
2010,03,08,07,30,0.10
2010,03,08,07,31,0.10
2010,03,08,07,32,0.10
2010,03,08,07,33,0.10
2010,03,08,07,35,0.10
2010,03,08,07,36,0.10
2010,03,08,07,37,0.10
2010,03,08,07,38,0.10
2010,03,08,07,40,0.10
2010,03,08,07,42,0.20
2010,03,08,07,43,0.20
2010,03,08,07,44,0.30
2010,03,08,07,45,0.30
2010,03,08,07,47,0.30
2010,03,08,07,48,0.40
2010,03,08,07,50,0.60
2010,03,08,07,51,0.70
2010,03,08,07,53,0.70
2010,03,08,07,54,0.80
2010,03,08,07,55,0.80
2010,03,08,07,56,0.90
2010,03,08,07,58,0.90
2010,03,08,08,00,0.90
2010,03,08,08,01,1.10
2010,03,08,08,03,1.10
2010,03,08,08,04,1.20
2010,03,08,08,05,1.20
2010,03,08,08,06,1.30
2010,03,08,08,08,1.30
2010,03,08,08,10,1.40
2010,03,08,08,11,1.60
2010,03,08,08,13,1.60
2010,03,08,08,14,1.70
2010,03,08,08,15,1.80
2010,03,08,08,16,1.80
2010,03,08,08,18,1.90
2010,03,08,08,19,1.90
2010,03,08,08,20,2.10
2010,03,08,08,21,2.20
2010,03,08,08,22,2.30
2010,03,08,08,24,2.40
2010,03,08,08,25,2.50
2010,03,08,08,26,2.60
2010,03,08,08,27,2.70
2010,03,08,08,29,2.70
2010,03,08,08,30,2.80
2010,03,08,08,31,2.80
2010,03,08,08,32,2.90
2010,03,08,08,33,2.90
2010,03,08,08,34,2.90
2010,03,08,08,36,3.10
2010,03,08,08,37,3.10
2010,03,08,08,38,3.20
2010,03,08,08,39,3.20
2010,03,08,08,42,3.40
2010,03,08,08,43,3.40
2010,03,08,08,44,3.60
2010,03,08,08,45,3.60
2010,03,08,08,47,3.70
2010,03,08,08,48,3.70
2010,03,08,08,49,3.80
2010,03,08,08,52,3.80
2010,03,08,08,53,3.80
2010,03,08,08,54,3.80
2010,03,08,08,55,3.80
2010,03,08,08,57,3.80
2010,03,08,08,58,3.90
2010,03,08,09,00,3.90
2010,03,08,09,02,4.10
2010,03,08,09,03,4.10
2010,03,08,09,04,4.30
2010,03,08,09,05,4.40
2010,03,08,09,06,4.40
2010,03,08,09,08,4.50
2010,03,08,09,09,4.60
2010,03,08,09,10,4.70
2010,03,08,09,11,4.80
2010,03,08,09,12,4.90
2010,03,08,09,14,5.10
2010,03,08,09,15,5.20
2010,03,08,09,16,5.30
2010,03,08,09,17,5.40
2010,03,08,09,18,5.40
2010,03,08,09,20,5.50
2010,03,08,09,21,5.60
2010,03,08,09,22,5.70
2010,03,08,09,23,5.80
2010,03,08,09,24,5.80
2010,03,08,09,26,5.90
2010,03,08,09,27,6.00
2010,03,08,09,28,6.10
2010,03,08,09,29,6.20
2010,03,08,09,31,6.40
2010,03,08,09,33,6.40
2010,03,08,09,34,6.60
2010,03,08,09,35,6.70
2010,03,08,09,36,6.80
2010,03,08,09,38,6.80
2010,03,08,09,40,6.90
2010,03,08,09,41,6.90
2010,03,08,09,43,6.90
2010,03,08,09,44,6.90
2010,03,08,09,45,7.00
2010,03,08,09,46,7.00
2010,03,08,09,47,7.10
2010,03,08,09,49,7.10
2010,03,08,09,50,7.10
2010,03,08,09,51,7.10
2010,03,08,09,52,6.90
2010,03,08,09,53,6.90
2010,03,08,09,55,6.80
2010,03,08,09,56,6.60
2010,03,08,09,57,6.50
2010,03,08,09,58,6.40
2010,03,08,09,59,6.30
2010,03,08,10,02,6.20
2010,03,08,10,03,6.20
2010,03,08,10,04,6.20
2010,03,08,10,05,6.10
2010,03,08,10,07,6.10
2010,03,08,10,08,6.10
2010,03,08,10,10,6.10
2010,03,08,10,11,6.10
2010,03,08,10,13,6.10
2010,03,08,10,14,6.10
2010,03,08,10,15,6.10
2010,03,08,10,16,6.20
2010,03,08,10,17,6.10
2010,03,08,10,19,6.10
2010,03,08,10,20,6.10
2010,03,08,10,21,6.10
2010,03,08,10,22,6.10
2010,03,08,10,24,6.20
2010,03,08,10,25,6.20
2010,03,08,10,26,6.30
2010,03,08,10,27,6.30
2010,03,08,10,28,6.30
2010,03,08,10,30,6.30
2010,03,08,10,32,6.30
2010,03,08,10,33,6.30
2010,03,08,10,34,6.30
2010,03,08,10,35,6.30
2010,03,08,10,37,6.30
2010,03,08,10,38,6.30
2010,03,08,10,40,6.30
2010,03,08,10,42,6.30
2010,03,08,10,43,6.40
2010,03,08,10,44,6.40
2010,03,08,10,45,6.50
2010,03,08,10,47,6.60
2010,03,08,10,48,6.70
2010,03,08,10,50,6.70
2010,03,08,10,52,6.70
2010,03,08,10,53,6.70
2010,03,08,10,54,6.70
2010,03,08,10,55,6.70
2010,03,08,10,57,6.70
2010,03,08,10,58,6.70
2010,03,08,11,00,6.60
2010,03,08,11,04,6.60
2010,03,08,11,05,6.60
2010,03,08,11,06,6.60
2010,03,08,11,07,6.60
2010,03,08,11,09,6.60
2010,03,08,11,10,6.70
2010,03,08,11,11,6.70
2010,03,08,11,12,6.70
2010,03,08,11,13,6.80
2010,03,08,11,15,6.80
2010,03,08,11,16,6.80
2010,03,08,11,17,6.90
2010,03,08,11,18,7.00
2010,03,08,11,19,7.10
2010,03,08,11,21,7.30
2010,03,08,11,22,7.40
2010,03,08,11,23,7.40
2010,03,08,11,24,7.60
2010,03,08,11,26,7.60
2010,03,08,11,27,7.70
2010,03,08,11,28,7.70
2010,03,08,11,30,7.70
2010,03,08,11,32,7.80
2010,03,08,11,34,7.70
2010,03,08,11,35,7.60
2010,03,08,11,36,7.50
2010,03,08,11,37,7.50
2010,03,08,11,38,7.40
2010,03,08,11,41,7.30
2010,03,08,11,42,7.30
2010,03,08,11,43,7.30
2010,03,08,11,44,7.30
2010,03,08,11,46,7.30
2010,03,08,11,47,7.20
2010,03,08,11,48,7.10
2010,03,08,11,49,6.90
2010,03,08,11,52,6.80
2010,03,08,11,53,6.70
2010,03,08,11,54,6.60
2010,03,08,11,55,6.60
2010,03,08,11,57,6.60
2010,03,08,11,58,6.50
2010,03,08,11,59,6.40
2010,03,08,12,02,6.40
2010,03,08,12,03,6.50
2010,03,08,12,05,6.50
2010,03,08,12,06,6.60
2010,03,08,12,07,6.60
2010,03,08,12,08,6.60
2010,03,08,12,10,6.60
2010,03,08,12,11,6.60
2010,03,08,12,13,6.60
2010,03,08,12,14,6.70
2010,03,08,12,15,6.70
2010,03,08,12,16,6.70
2010,03,08,12,18,6.70
2010,03,08,12,19,6.70
2010,03,08,12,20,6.70
2010,03,08,12,21,6.70
2010,03,08,12,22,6.70
2010,03,08,12,24,6.70
2010,03,08,12,25,6.70
2010,03,08,12,26,6.80
2010,03,08,12,27,6.80
2010,03,08,12,28,6.80
2010,03,08,12,29,6.80
2010,03,08,12,31,6.80
2010,03,08,12,33,6.90
2010,03,08,12,34,7.00
2010,03,08,12,35,7.10
2010,03,08,12,36,7.10
2010,03,08,12,38,7.20
2010,03,08,12,40,7.20
2010,03,08,12,41,7.20
2010,03,08,12,43,7.20
2010,03,08,12,44,7.30
2010,03,08,12,45,7.40
2010,03,08,12,46,7.50
2010,03,08,12,47,7.60
2010,03,08,12,49,7.70
2010,03,08,12,50,7.80
2010,03,08,12,51,8.00
2010,03,08,12,52,8.20
2010,03,08,12,53,8.30
2010,03,08,12,55,8.40
2010,03,08,12,56,8.60
2010,03,08,12,57,8.60
2010,03,08,12,58,8.60
2010,03,08,13,00,8.60
2010,03,08,13,01,8.40
2010,03,08,13,02,8.20
2010,03,08,13,03,8.10
2010,03,08,13,04,7.90
2010,03,08,13,06,7.70
2010,03,08,13,07,7.30
2010,03,08,13,08,7.10
2010,03,08,13,09,6.90
2010,03,08,13,12,6.60
2010,03,08,13,13,6.40
2010,03,08,13,14,6.30
2010,03,08,13,15,6.10
2010,03,08,13,16,6.00
2010,03,08,13,18,5.90
2010,03,08,13,20,5.90
2010,03,08,13,21,5.80
2010,03,08,13,22,5.80
2010,03,08,13,24,5.90
2010,03,08,13,25,5.90
2010,03,08,13,26,5.90
2010,03,08,13,27,5.90
2010,03,08,13,28,6.00
2010,03,08,13,30,6.00
2010,03,08,13,33,6.10
2010,03,08,13,34,6.10
2010,03,08,13,35,6.20
2010,03,08,13,36,6.20
2010,03,08,13,38,6.20
2010,03,08,13,39,6.30
2010,03,08,13,40,6.40
2010,03,08,13,41,6.60
2010,03,08,13,42,6.80
2010,03,08,13,44,6.90
2010,03,08,13,45,7.20
2010,03,08,13,46,7.40
2010,03,08,13,47,7.60
2010,03,08,13,48,7.70
2010,03,08,13,50,7.70
2010,03,08,13,51,7.70
2010,03,08,13,52,7.70
2010,03,08,13,53,7.70
2010,03,08,13,54,7.70
2010,03,08,13,55,7.60
2010,03,08,13,57,7.50
2010,03,08,13,58,7.40
2010,03,08,14,00,7.40
2010,03,08,14,03,7.40
2010,03,08,14,04,7.50
2010,03,08,14,05,7.50
2010,03,08,14,06,7.50
2010,03,08,14,08,7.50
2010,03,08,14,09,7.50
2010,03,08,14,10,7.40
2010,03,08,14,11,7.40
2010,03,08,14,12,7.40
2010,03,08,14,14,7.40
2010,03,08,14,15,7.40
2010,03,08,14,16,7.50
2010,03,08,14,17,7.60
2010,03,08,14,19,7.70
2010,03,08,14,20,7.80
2010,03,08,14,21,7.90
2010,03,08,14,23,8.20
2010,03,08,14,25,8.40
2010,03,08,14,26,8.50
2010,03,08,14,27,8.60
2010,03,08,14,28,8.60
2010,03,08,14,30,8.70
2010,03,08,14,31,8.60
2010,03,08,14,32,8.60
2010,03,08,14,33,8.40
2010,03,08,14,34,8.30
2010,03,08,14,36,8.20
2010,03,08,14,37,8.10
2010,03,08,14,38,7.80
2010,03,08,14,40,7.50
2010,03,08,14,42,7.30
2010,03,08,14,43,7.10
2010,03,08,14,44,7.10
2010,03,08,14,45,7.00
2010,03,08,14,47,6.90
2010,03,08,14,48,6.90
2010,03,08,14,50,6.90
2010,03,08,14,51,6.90
2010,03,08,14,52,6.90
2010,03,08,14,54,6.90
2010,03,08,14,55,6.70
2010,03,08,14,56,6.60
2010,03,08,14,57,6.50
2010,03,08,14,59,6.40
2010,03,08,15,00,6.30
2010,03,08,15,01,6.10
2010,03,08,15,02,6.00
2010,03,08,15,04,5.80
2010,03,08,15,05,5.70
2010,03,08,15,06,5.60
2010,03,08,15,07,5.50
2010,03,08,15,08,5.30
2010,03,08,15,10,5.10
2010,03,08,15,11,4.90
2010,03,08,15,12,4.80
2010,03,08,15,13,4.80
2010,03,08,15,14,4.70
2010,03,08,15,15,4.70
2010,03,08,15,17,4.70
2010,03,08,15,18,4.70
2010,03,08,15,20,4.70
2010,03,08,15,22,4.80
2010,03,08,15,23,4.90
2010,03,08,15,24,5.00
2010,03,08,15,25,5.10
2010,03,08,15,26,5.20
2010,03,08,15,28,5.20
2010,03,08,15,30,5.20
2010,03,08,15,31,5.20
2010,03,08,15,32,5.20
2010,03,08,15,33,5.20
2010,03,08,15,35,5.30
2010,03,08,15,36,5.40
2010,03,08,15,37,5.50
2010,03,08,15,38,5.60
2010,03,08,15,39,5.60
2010,03,08,15,41,5.70
2010,03,08,15,42,5.70
2010,03,08,15,43,5.70
2010,03,08,15,44,5.70
2010,03,08,15,46,5.70
2010,03,08,15,47,5.70
2010,03,08,15,48,5.70
2010,03,08,15,50,5.70
2010,03,08,15,52,5.70
2010,03,08,15,53,5.70
2010,03,08,15,54,5.60
2010,03,08,15,55,5.60
2010,03,08,15,56,5.60
2010,03,08,15,57,5.60
2010,03,08,15,59,5.70
2010,03,08,16,00,5.70
2010,03,08,16,01,5.70
2010,03,08,16,02,5.70
2010,03,08,16,04,5.60
2010,03,08,16,05,5.60
2010,03,08,16,06,5.60
2010,03,08,16,07,5.50
2010,03,08,16,08,5.50
2010,03,08,16,09,5.50
2010,03,08,16,11,5.40
2010,03,08,16,12,5.30
2010,03,08,16,14,5.30
2010,03,08,16,15,5.20
2010,03,08,16,17,5.20
2010,03,08,16,18,5.20
2010,03,08,16,20,5.10
2010,03,08,16,23,5.00
2010,03,08,16,24,4.90
2010,03,08,16,25,4.90
2010,03,08,16,26,4.90
2010,03,08,16,27,4.80
2010,03,08,16,29,4.80
2010,03,08,16,30,4.80
2010,03,08,16,31,4.80
2010,03,08,16,32,4.80
2010,03,08,16,33,4.80
2010,03,08,16,35,4.70
2010,03,08,16,36,4.70
2010,03,08,16,37,4.70
2010,03,08,16,38,4.70
2010,03,08,16,39,4.70
2010,03,08,16,41,4.70
2010,03,08,16,42,4.60
2010,03,08,16,43,4.60
2010,03,08,16,44,4.60
2010,03,08,16,46,4.60
2010,03,08,16,47,4.60
2010,03,08,16,48,4.60
2010,03,08,16,50,4.60
2010,03,08,16,52,4.60
2010,03,08,16,53,4.60
2010,03,08,16,54,4.60
2010,03,08,16,55,4.60
2010,03,08,16,57,4.60
2010,03,08,16,58,4.60
2010,03,08,16,59,4.60
2010,03,08,17,02,4.60
2010,03,08,17,03,4.60
2010,03,08,17,04,4.60
2010,03,08,17,05,4.60
2010,03,08,17,07,4.60
2010,03,08,17,08,4.60
2010,03,08,17,10,4.60
2010,03,08,17,12,4.60
2010,03,08,17,13,4.60
2010,03,08,17,14,4.60
2010,03,08,17,15,4.60
2010,03,08,17,17,4.60
2010,03,08,17,18,4.60
2010,03,08,17,19,4.60
2010,03,08,17,22,4.70
2010,03,08,17,23,4.60
2010,03,08,17,24,4.60
2010,03,08,17,25,4.60
2010,03,08,17,27,4.60
2010,03,08,17,28,4.50
2010,03,08,17,30,4.50
2010,03,08,17,31,4.40
2010,03,08,17,33,4.40
2010,03,08,17,34,4.40
2010,03,08,17,35,4.30
2010,03,08,17,36,4.30
2010,03,08,17,37,4.30
2010,03,08,17,39,4.20
2010,03,08,17,40,4.20
2010,03,08,17,41,4.20
2010,03,08,17,42,4.10
2010,03,08,17,43,4.10
2010,03,08,17,45,4.10
2010,03,08,17,46,4.00
2010,03,08,17,47,4.00
2010,03,08,17,48,3.90
2010,03,08,17,50,3.90
2010,03,08,17,51,3.90
2010,03,08,17,52,3.80
2010,03,08,17,53,3.80
2010,03,08,17,54,3.80
2010,03,08,17,56,3.80
2010,03,08,17,57,3.80
2010,03,08,17,58,3.70
2010,03,08,17,59,3.70
2010,03,08,18,02,3.60
2010,03,08,18,03,3.60
2010,03,08,18,04,3.50
2010,03,08,18,05,3.40
2010,03,08,18,06,3.40
2010,03,08,18,08,3.30
2010,03,08,18,10,3.30
2010,03,08,18,11,3.20
2010,03,08,18,13,3.20
2010,03,08,18,14,3.20
2010,03,08,18,15,3.10
2010,03,08,18,16,3.10
2010,03,08,18,17,3.10
2010,03,08,18,19,3.10
2010,03,08,18,20,3.00
2010,03,08,18,21,3.00
2010,03,08,18,22,2.90
2010,03,08,18,23,2.90
2010,03,08,18,25,2.90
2010,03,08,18,26,2.90
2010,03,08,18,27,2.90
2010,03,08,18,28,2.90
2010,03,08,18,30,2.80
2010,03,08,18,32,2.80
2010,03,08,18,33,2.80
2010,03,08,18,34,2.70
2010,03,08,18,36,2.70
2010,03,08,18,37,2.70
2010,03,08,18,38,2.70
2010,03,08,18,40,2.60
2010,03,08,18,42,2.60
2010,03,08,18,43,2.60
2010,03,08,18,44,2.60
2010,03,08,18,45,2.60
2010,03,08,18,47,2.60
2010,03,08,18,48,2.60
2010,03,08,18,50,2.60
2010,03,08,18,52,2.60
2010,03,08,18,53,2.50
2010,03,08,18,54,2.50
2010,03,08,18,55,2.50
2010,03,08,18,57,2.50
2010,03,08,18,58,2.40
2010,03,08,19,00,2.40
2010,03,08,19,02,2.30
2010,03,08,19,03,2.20
2010,03,08,19,04,2.20
2010,03,08,19,05,2.20
2010,03,08,19,07,2.10
2010,03,08,19,08,2.10
2010,03,08,19,10,2.10
2010,03,08,19,11,2.10
2010,03,08,19,13,2.00
2010,03,08,19,14,1.90
2010,03,08,19,15,1.90
2010,03,08,19,16,1.90
2010,03,08,19,17,1.90
2010,03,08,19,19,1.90
2010,03,08,19,20,1.90
2010,03,08,19,21,1.90
2010,03,08,19,22,1.90
2010,03,08,19,23,1.90
2010,03,08,19,24,1.90
2010,03,08,19,26,1.90
2010,03,08,19,27,1.90
2010,03,08,19,28,1.90
2010,03,08,19,30,1.90
2010,03,08,19,33,1.90
2010,03,08,19,34,1.90
2010,03,08,19,35,1.90
2010,03,08,19,36,1.90
2010,03,08,19,37,1.90
2010,03,08,19,39,1.80
2010,03,08,19,40,1.80
2010,03,08,19,41,1.80
2010,03,08,19,42,1.70
2010,03,08,19,43,1.70
2010,03,08,19,45,1.70
2010,03,08,19,46,1.70
2010,03,08,19,47,1.70
2010,03,08,19,48,1.60
2010,03,08,19,50,1.60
2010,03,08,19,51,1.60
2010,03,08,19,52,1.60
2010,03,08,19,53,1.60
2010,03,08,19,54,1.50
2010,03,08,19,56,1.60
2010,03,08,19,57,1.50
2010,03,08,19,58,1.50
2010,03,08,19,59,1.60
2010,03,08,20,02,1.70
2010,03,08,20,03,1.70
2010,03,08,20,04,1.70
2010,03,08,20,06,1.80
2010,03,08,20,07,1.80
2010,03,08,20,08,1.80
2010,03,08,20,10,1.80
2010,03,08,20,12,1.70
2010,03,08,20,13,1.70
2010,03,08,20,14,1.70
2010,03,08,20,15,1.60
2010,03,08,20,17,1.50
2010,03,08,20,18,1.40
2010,03,08,20,20,1.30
2010,03,08,20,21,1.20
2010,03,08,20,23,1.20
2010,03,08,20,24,1.10
2010,03,08,20,25,1.10
2010,03,08,20,26,1.10
2010,03,08,20,27,1.00
2010,03,08,20,29,1.00
2010,03,08,20,30,0.90
2010,03,08,20,31,0.90
2010,03,08,20,32,0.90
2010,03,08,20,33,0.90
2010,03,08,20,34,1.00
2010,03,08,20,36,1.00
2010,03,08,20,37,1.00
2010,03,08,20,38,1.00
2010,03,08,20,40,1.10
2010,03,08,20,42,1.10
2010,03,08,20,43,1.10
2010,03,08,20,44,1.10
2010,03,08,20,45,1.00
2010,03,08,20,46,1.00
2010,03,08,20,47,0.90
2010,03,08,20,49,0.90
2010,03,08,20,50,0.90
2010,03,08,20,51,1.10
2010,03,08,20,52,1.10
2010,03,08,20,54,1.20
2010,03,08,20,55,1.20
2010,03,08,20,56,1.20
2010,03,08,20,57,1.20
2010,03,08,20,59,1.20
2010,03,08,21,00,1.20
2010,03,08,21,01,1.20
2010,03,08,21,02,1.20
2010,03,08,21,03,1.20
2010,03,08,21,04,1.20
2010,03,08,21,06,1.20
2010,03,08,21,07,1.10
2010,03,08,21,08,1.10
2010,03,08,21,09,0.90
2010,03,08,21,12,0.80
2010,03,08,21,13,0.70
2010,03,08,21,14,0.60
2010,03,08,21,15,0.60
2010,03,08,21,17,0.50
2010,03,08,21,18,0.40
2010,03,08,21,20,0.40
2010,03,08,21,21,0.40
2010,03,08,21,22,0.40
2010,03,08,21,24,0.50
2010,03,08,21,25,0.40
2010,03,08,21,26,0.40
2010,03,08,21,27,0.40
2010,03,08,21,29,0.40
2010,03,08,21,31,0.40
2010,03,08,21,32,0.40
2010,03,08,21,33,0.40
2010,03,08,21,35,0.40
2010,03,08,21,37,0.40
2010,03,08,21,38,0.30
2010,03,08,21,40,0.30
2010,03,08,21,42,0.40
2010,03,08,21,43,0.40
2010,03,08,21,45,0.50
2010,03,08,21,46,0.50
2010,03,08,21,48,0.50
2010,03,08,21,50,0.40
2010,03,08,21,53,0.50
2010,03,08,21,54,0.50
2010,03,08,21,55,0.60
2010,03,08,21,56,0.50
2010,03,08,21,59,0.50
2010,03,08,22,00,0.40
2010,03,08,22,01,0.30
2010,03,08,22,02,0.30
2010,03,08,22,04,0.30
2010,03,08,22,05,0.30
2010,03,08,22,06,0.20
2010,03,08,22,07,0.20
2010,03,08,22,08,0.20
2010,03,08,22,10,0.20
2010,03,08,22,11,0.20
2010,03,08,22,13,0.10
2010,03,08,22,15,0.20
2010,03,08,22,17,0.20
2010,03,08,22,18,0.20
2010,03,08,22,20,0.20
2010,03,08,22,22,0.20
2010,03,08,22,23,0.20
2010,03,08,22,24,0.20
2010,03,08,22,26,0.20
2010,03,08,22,28,0.20
2010,03,08,22,30,0.20
2010,03,08,22,31,0.20
2010,03,08,22,32,0.10
2010,03,08,22,34,0.10
2010,03,08,22,35,0.10
2010,03,08,22,36,0.00
2010,03,08,22,37,0.00
2010,03,08,22,38,0.00
2010,03,08,22,39,0.00
2010,03,08,22,41,0.00
2010,03,08,22,42,0.10
2010,03,08,22,43,0.10
2010,03,08,22,44,0.10
2010,03,08,22,46,0.10
2010,03,08,22,47,0.10
2010,03,08,22,48,0.10
2010,03,08,22,50,0.10
2010,03,08,22,52,0.10
2010,03,08,22,53,0.10
2010,03,08,22,54,0.10
2010,03,08,22,55,0.10
2010,03,08,22,57,0.10
2010,03,08,22,58,0.10
2010,03,08,23,00,0.10
2010,03,08,23,01,-0.10
2010,03,08,23,03,-0.10
2010,03,08,23,04,-0.10
2010,03,08,23,05,-0.20
2010,03,08,23,06,-0.20
2010,03,08,23,07,-0.20
2010,03,08,23,08,-0.20
2010,03,08,23,10,-0.20
2010,03,08,23,11,-0.20
2010,03,08,23,12,-0.20
2010,03,08,23,13,-0.20
2010,03,08,23,14,-0.20
2010,03,08,23,16,-0.20
2010,03,08,23,17,-0.10
2010,03,08,23,18,-0.10
2010,03,08,23,19,-0.10
2010,03,08,23,22,0.00
2010,03,08,23,23,0.10
2010,03,08,23,24,0.10
2010,03,08,23,25,0.00
2010,03,08,23,27,0.00
2010,03,08,23,28,0.00
2010,03,08,23,30,0.00
2010,03,08,23,31,0.00
2010,03,08,23,32,-0.10
2010,03,08,23,33,-0.10
2010,03,08,23,35,-0.10
2010,03,08,23,36,-0.10
2010,03,08,23,37,-0.10
2010,03,08,23,38,-0.10
2010,03,08,23,40,-0.10
2010,03,08,23,41,-0.10
2010,03,08,23,42,-0.10
2010,03,08,23,43,-0.10
2010,03,08,23,44,-0.20
2010,03,08,23,46,-0.20
2010,03,08,23,47,-0.30
2010,03,08,23,48,-0.30
2010,03,08,23,50,-0.30
2010,03,08,23,51,-0.20
2010,03,08,23,53,-0.10
2010,03,08,23,54,0.00
2010,03,08,23,55,0.00
2010,03,08,23,56,0.00
2010,03,08,23,58,0.00
2010,03,08,23,59,0.00
